�������l�o���
Date,Time,MP-1(��Sv/h),MP-2(��Sv/h),MP-3(��Sv/h),MP-4(��Sv/h),MP-5(��Sv/h),MP-6(��Sv/h),MP-7(��Sv/h),MP-8(��Sv/h),����,����(m/s),���J
2018/11/21,00:00,0.774,1.175,0.824,1.472,1.060,0.452,0.801,0.758,��,5.9,��
2018/11/21,00:10,0.774,1.172,0.822,1.473,1.061,0.453,0.801,0.759,��,6.4,��
2018/11/21,00:20,0.774,1.174,0.823,1.472,1.060,0.452,0.800,0.757,��,5.8,��
2018/11/21,00:30,0.776,1.173,0.823,1.472,1.062,0.452,0.800,0.757,��,6.3,��
2018/11/21,00:40,0.775,1.174,0.822,1.472,1.061,0.452,0.801,0.758,��,6.9,��
2018/11/21,00:50,0.773,1.176,0.821,1.472,1.058,0.453,0.801,0.756,��,7.0,��
2018/11/21,01:00,0.776,1.175,0.821,1.473,1.060,0.453,0.803,0.758,��,7.0,��
2018/11/21,01:10,0.773,1.173,0.823,1.472,1.060,0.453,0.801,0.759,��,5.6,��
2018/11/21,01:20,0.773,1.175,0.822,1.470,1.062,0.453,0.803,0.759,��,5.4,��
2018/11/21,01:30,0.775,1.175,0.821,1.472,1.059,0.453,0.801,0.757,��,4.3,��
2018/11/21,01:40,0.773,1.173,0.821,1.474,1.061,0.451,0.801,0.758,���k��,4.0,��
2018/11/21,01:50,0.773,1.174,0.822,1.471,1.060,0.453,0.800,0.759,���k��,5.5,��
2018/11/21,02:00,0.774,1.178,0.823,1.473,1.063,0.455,0.802,0.757,�k��,5.6,��
2018/11/21,02:10,0.774,1.173,0.823,1.473,1.061,0.454,0.802,0.757,�k��,5.7,��
2018/11/21,02:20,0.774,1.175,0.823,1.476,1.061,0.453,0.801,0.758,�k��,5.0,��
2018/11/21,02:30,0.774,1.172,0.822,1.474,1.061,0.452,0.801,0.757,�k��,4.8,��
2018/11/21,02:40,0.775,1.177,0.822,1.474,1.063,0.453,0.800,0.757,�k��,5.0,��
2018/11/21,02:50,0.774,1.174,0.821,1.472,1.061,0.453,0.801,0.758,���k��,4.5,��
2018/11/21,03:00,0.777,1.175,0.822,1.474,1.058,0.453,0.800,0.758,�k��,4.0,��
2018/11/21,03:10,0.775,1.173,0.823,1.473,1.060,0.452,0.800,0.757,���k��,2.2,��
2018/11/21,03:20,0.774,1.175,0.824,1.474,1.059,0.453,0.801,0.757,��쐼,1.7,��
2018/11/21,03:30,0.774,1.174,0.823,1.472,1.059,0.453,0.800,0.758,��쐼,2.3,��
2018/11/21,03:40,0.774,1.174,0.820,1.471,1.060,0.452,0.800,0.757,��쐼,3.2,��
2018/11/21,03:50,0.774,1.174,0.821,1.473,1.059,0.453,0.800,0.757,��,4.1,��
2018/11/21,04:00,0.774,1.174,0.821,1.475,1.058,0.452,0.801,0.757,��쐼,4.3,��
2018/11/21,04:10,0.775,1.173,0.820,1.472,1.061,0.453,0.801,0.757,��쐼,4.1,��
2018/11/21,04:20,0.775,1.171,0.819,1.474,1.058,0.453,0.801,0.758,��쐼,4.1,��
2018/11/21,04:30,0.773,1.173,0.820,1.472,1.056,0.451,0.799,0.758,�쐼,3.4,��
2018/11/21,04:40,0.775,1.175,0.821,1.476,1.059,0.452,0.800,0.756,�쐼,3.0,��
2018/11/21,04:50,0.773,1.174,0.822,1.471,1.060,0.452,0.801,0.757,�쐼,2.6,��
2018/11/21,05:00,0.775,1.172,0.822,1.474,1.059,0.453,0.800,0.757,�쐼,3.3,��
2018/11/21,05:10,0.771,1.176,0.819,1.471,1.059,0.453,0.800,0.758,�쐼,3.0,��
2018/11/21,05:20,0.774,1.176,0.820,1.470,1.060,0.453,0.801,0.757,��쐼,2.6,��
2018/11/21,05:30,0.773,1.173,0.820,1.472,1.060,0.451,0.800,0.758,��쐼,1.7,��
2018/11/21,05:40,0.774,1.174,0.821,1.470,1.060,0.453,0.799,0.758,��쐼,2.0,��
2018/11/21,05:50,0.776,1.174,0.820,1.472,1.059,0.453,0.800,0.756,�쐼,3.2,��
2018/11/21,06:00,0.774,1.174,0.821,1.474,1.057,0.452,0.800,0.757,�쐼,3.6,��
2018/11/21,06:10,0.774,1.173,0.820,1.470,1.057,0.453,0.800,0.758,���쐼,3.2,��
2018/11/21,06:20,0.774,1.174,0.821,1.471,1.061,0.453,0.801,0.756,���쐼,2.3,��
2018/11/21,06:30,0.773,1.174,0.823,1.469,1.060,0.454,0.799,0.759,��,2.6,��
2018/11/21,06:40,0.773,1.170,0.821,1.473,1.059,0.452,0.800,0.758,��,3.7,��
2018/11/21,06:50,0.774,1.172,0.821,1.472,1.060,0.453,0.799,0.758,��,4.3,��
2018/11/21,07:00,0.774,1.172,0.819,1.471,1.058,0.452,0.801,0.758,��,5.0,��
2018/11/21,07:10,0.773,1.173,0.823,1.470,1.059,0.453,0.800,0.757,��쐼,5.6,��
2018/11/21,07:20,0.775,1.171,0.821,1.473,1.061,0.452,0.801,0.757,��쐼,7.4,��
2018/11/21,07:30,0.773,1.171,0.820,1.473,1.059,0.454,0.801,0.757,��,6.0,��
2018/11/21,07:40,0.775,1.175,0.821,1.472,1.061,0.454,0.800,0.757,��,4.9,��
2018/11/21,07:50,0.775,1.175,0.820,1.472,1.060,0.453,0.801,0.758,��,6.9,��
2018/11/21,08:00,0.773,1.174,0.821,1.472,1.060,0.454,0.802,0.758,��,7.4,��
2018/11/21,08:10,0.778,1.173,0.821,1.472,1.059,0.454,0.803,0.758,��,8.3,��
2018/11/21,08:20,0.775,1.174,0.823,1.471,1.062,0.454,0.802,0.760,��,7.5,��
2018/11/21,08:30,0.776,1.174,0.819,1.470,1.060,0.455,0.802,0.760,��,7.2,��
2018/11/21,08:40,0.778,1.171,0.822,1.474,1.060,0.454,0.803,0.757,��,7.2,��
2018/11/21,08:50,0.778,1.174,0.823,1.472,1.061,0.455,0.801,0.760,��,9.0,��
2018/11/21,09:00,0.779,1.173,0.824,1.473,1.060,0.455,0.804,0.759,��,9.4,��
2018/11/21,09:10,0.779,1.174,0.822,1.474,1.062,0.455,0.802,0.758,��,7.6,��
2018/11/21,09:20,0.780,1.174,0.823,1.471,1.064,0.454,0.802,0.760,��,7.1,��
2018/11/21,09:30,0.777,1.171,0.822,1.474,1.065,0.454,0.803,0.758,��,7.3,��
2018/11/21,09:40,0.779,1.175,0.823,1.475,1.064,0.457,0.802,0.760,��,8.1,��
2018/11/21,09:50,0.780,1.173,0.824,1.474,1.062,0.455,0.802,0.760,��,6.9,��
2018/11/21,10:00,0.779,1.171,0.823,1.474,1.064,0.455,0.801,0.760,��,7.5,��
2018/11/21,10:10,0.780,1.174,0.822,1.474,1.063,0.457,0.802,0.760,��,6.5,��
2018/11/21,10:20,0.780,1.174,0.824,1.475,1.064,0.457,0.802,0.761,��,5.4,��
2018/11/21,10:30,0.781,1.176,0.824,1.473,1.060,0.456,0.801,0.759,��,6.0,��
2018/11/21,10:40,0.780,1.173,0.825,1.475,1.065,0.455,0.802,0.760,��,6.5,��
2018/11/21,10:50,0.779,1.171,0.823,1.475,-,0.455,0.804,0.761,��,6.2,��
2018/11/21,11:00,0.782,1.173,0.824,1.472,-,0.455,0.805,0.759,��,6.6,��
2018/11/21,11:10,0.779,1.176,0.825,1.474,-,0.454,0.802,0.759,��,6.7,��
2018/11/21,11:20,0.782,1.177,0.824,1.475,-,0.456,0.802,0.759,��쓌,7.0,��
2018/11/21,11:30,0.780,1.175,0.825,1.474,-,0.455,0.802,0.761,��,5.5,��
2018/11/21,11:40,0.779,1.178,0.825,1.476,-,0.456,0.803,0.760,��,7.2,��
2018/11/21,11:50,0.778,1.179,0.825,1.475,-,0.456,0.801,0.761,��,5.0,��
2018/11/21,12:00,0.780,1.182,0.824,1.475,-,0.457,0.805,0.761,��,5.1,��
2018/11/21,12:10,0.780,1.177,0.827,1.477,-,0.459,0.803,0.762,��,6.3,��
2018/11/21,12:20,0.779,1.178,0.825,1.477,-,0.460,0.805,0.759,��쐼,6.7,��
2018/11/21,12:30,0.779,1.178,0.824,1.479,-,0.460,0.804,0.759,��,5.7,��
2018/11/21,12:40,0.780,1.178,0.823,1.477,-,0.459,0.803,0.758,��쐼,5.1,��
2018/11/21,12:50,0.782,1.178,0.825,1.477,-,0.459,0.803,0.759,��쐼,6.2,��
2018/11/21,13:00,0.782,1.175,0.824,1.476,-,0.460,0.805,0.756,��쐼,5.1,��
2018/11/21,13:10,0.782,1.178,0.824,1.475,-,0.459,0.805,0.757,��,4.1,��
2018/11/21,13:20,0.782,1.177,0.825,1.475,-,0.459,0.804,0.758,��쓌,5.2,��
2018/11/21,13:30,0.782,1.179,0.824,1.475,-,0.459,0.806,0.759,��,4.1,��
2018/11/21,13:40,0.780,1.175,0.824,1.478,-,0.460,0.804,0.759,��,3.2,��
2018/11/21,13:50,0.781,1.178,0.824,1.479,-,0.457,0.805,0.759,���쐼,2.2,��
2018/11/21,14:00,0.782,1.178,0.825,1.478,-,0.458,0.805,0.757,��,4.6,��
2018/11/21,14:10,0.780,1.178,0.825,1.476,-,0.458,0.805,0.757,��쓌,6.1,��
2018/11/21,14:20,0.781,1.174,0.826,1.477,1.065,0.459,0.805,0.759,��,4.6,��
2018/11/21,14:30,0.781,1.174,0.825,1.477,1.068,0.459,0.804,0.759,��,3.7,��
2018/11/21,14:40,0.781,1.175,0.824,1.476,1.067,0.459,0.805,0.758,��,2.8,��
2018/11/21,14:50,0.781,1.176,0.826,1.478,1.068,0.459,0.806,0.759,��쐼,2.3,��
2018/11/21,15:00,0.781,1.175,0.827,1.479,1.069,0.458,0.807,0.759,��쐼,1.9,��
2018/11/21,15:10,0.781,1.184,0.823,1.478,1.067,0.458,0.805,0.760,��,0.9,��
2018/11/21,15:20,0.780,1.185,0.826,1.477,1.066,0.458,0.808,0.760,��,0.9,��
2018/11/21,15:30,0.781,1.189,0.825,1.477,1.067,0.458,0.805,0.759,��,0.6,��
2018/11/21,15:40,0.781,1.186,0.826,1.478,1.064,0.460,0.804,0.760,�k��,1.2,��
2018/11/21,15:50,0.780,1.183,0.825,1.476,1.068,0.460,0.806,0.760,�k��,2.3,��
2018/11/21,16:00,0.780,1.183,0.827,1.477,1.066,0.460,0.804,0.762,��,2.0,��
2018/11/21,16:10,0.782,1.184,0.831,1.474,1.070,0.458,0.805,0.761,��,2.2,��
2018/11/21,16:20,0.784,1.186,0.828,1.479,1.070,0.458,0.805,0.762,���k��,3.2,��
2018/11/21,16:30,0.784,1.185,0.827,1.478,1.070,0.459,0.805,0.761,�k,7.2,��
2018/11/21,16:40,0.783,1.185,0.828,1.480,1.071,0.459,0.805,0.760,�k,7.3,��
2018/11/21,16:50,0.784,1.188,0.827,1.477,1.070,0.458,0.804,0.762,�k,6.3,��
2018/11/21,17:00,0.781,1.185,0.827,1.479,1.071,0.457,0.804,0.762,�k�k��,5.6,��
2018/11/21,17:10,0.783,1.186,0.826,1.477,1.069,0.459,0.805,0.758,�k�k��,5.3,��
2018/11/21,17:20,0.782,1.187,0.827,1.478,1.069,0.458,0.803,0.760,�k�k��,5.4,��
2018/11/21,17:30,0.782,1.187,0.826,1.478,1.071,0.458,0.804,0.760,�k�k��,4.1,��
2018/11/21,17:40,0.783,1.185,0.827,1.477,1.069,0.456,0.803,0.759,�k�k��,3.8,��
2018/11/21,17:50,0.782,1.184,0.828,1.477,1.070,0.456,0.805,0.759,�k�k��,3.4,��
2018/11/21,18:00,0.784,1.184,0.828,1.478,1.069,0.457,0.804,0.759,�k�k��,3.2,��
2018/11/21,18:10,0.782,1.182,0.826,1.479,1.070,0.456,0.803,0.760,�k�k��,3.6,��
2018/11/21,18:20,0.781,1.184,0.827,1.477,1.069,0.457,0.804,0.759,�k�k��,4.0,��
2018/11/21,18:30,0.780,1.183,0.827,1.478,1.069,0.456,0.803,0.759,�k�k��,4.1,��
2018/11/21,18:40,0.782,1.186,0.828,1.477,1.069,0.457,0.805,0.760,�k�k��,3.3,��
2018/11/21,18:50,0.782,1.183,0.827,1.478,1.071,0.455,0.803,0.760,�k�k��,4.0,��
2018/11/21,19:00,0.782,1.186,0.827,1.480,1.068,0.456,0.804,0.762,�k�k��,3.4,��
2018/11/21,19:10,0.782,1.183,0.828,1.480,1.066,0.455,0.804,0.762,�k��,3.6,��
2018/11/21,19:20,0.782,1.184,0.827,1.478,1.069,0.456,0.803,0.758,���k��,2.0,��
2018/11/21,19:30,0.782,1.183,0.828,1.474,1.067,0.455,0.803,0.762,���k��,2.5,��
2018/11/21,19:40,0.779,1.185,0.826,1.480,1.071,0.455,0.803,0.759,���k��,2.3,��
2018/11/21,19:50,0.782,1.185,0.827,1.478,1.070,0.456,0.805,0.760,���k��,1.5,��
2018/11/21,20:00,0.783,1.184,0.826,1.474,1.068,0.457,0.803,0.760,��,0.9,��
2018/11/21,20:10,0.780,1.184,0.828,1.477,1.069,0.455,0.803,0.760,���쐼,1.1,��
2018/11/21,20:20,0.782,1.185,0.826,1.477,1.071,0.456,0.803,0.758,�쐼,1.7,��
2018/11/21,20:30,0.781,1.185,0.827,1.479,1.067,0.456,0.804,0.760,��쐼,2.3,��
2018/11/21,20:40,0.783,1.182,0.828,1.476,1.069,0.455,0.805,0.759,��쐼,3.1,��
2018/11/21,20:50,0.782,1.185,0.826,1.476,1.065,0.456,0.805,0.760,��쐼,2.6,��
2018/11/21,21:00,0.780,1.184,0.827,1.479,1.067,0.456,0.804,0.760,��쐼,2.6,��
2018/11/21,21:10,0.781,1.183,0.827,1.476,1.068,0.455,0.805,0.758,��쐼,3.1,��
2018/11/21,21:20,0.781,1.183,0.825,1.476,1.069,0.454,0.803,0.760,��쐼,2.8,��
2018/11/21,21:30,0.782,1.184,0.827,1.478,1.069,0.456,0.803,0.760,�쐼,3.0,��
2018/11/21,21:40,0.780,1.183,0.829,1.477,1.069,0.456,0.804,0.759,��쐼,3.0,��
2018/11/21,21:50,0.783,1.185,0.824,1.476,1.067,0.455,0.805,0.761,��쐼,2.3,��
2018/11/21,22:00,0.783,1.182,0.827,1.479,1.070,0.457,0.806,0.760,��쐼,2.3,��
2018/11/21,22:10,0.781,1.184,0.830,1.476,1.069,0.456,0.804,0.759,��,2.6,��
2018/11/21,22:20,0.783,1.184,0.827,1.475,1.069,0.456,0.804,0.758,��,2.5,��
2018/11/21,22:30,0.782,1.185,0.826,1.478,1.069,0.456,0.806,0.760,��쐼,1.9,��
2018/11/21,22:40,0.782,1.182,0.825,1.478,1.067,0.454,0.804,0.759,��,1.2,��
2018/11/21,22:50,0.782,1.184,0.826,1.478,1.067,0.455,0.803,0.762,�쐼,0.9,��
2018/11/21,23:00,0.780,1.183,0.827,1.476,1.067,0.456,0.803,0.761,�쐼,1.4,��
2018/11/21,23:10,0.784,1.185,0.827,1.476,1.071,0.454,0.802,0.760,���쐼,2.0,��
2018/11/21,23:20,0.782,1.184,0.826,1.477,1.068,0.456,0.805,0.759,�k��,0.8,��
2018/11/21,23:30,0.784,1.182,0.827,1.480,1.069,0.456,0.803,0.760,�k�k��,2.0,��
2018/11/21,23:40,0.781,1.184,0.827,1.476,1.067,0.456,0.804,0.759,�k�k��,2.2,��
2018/11/21,23:50,0.781,1.184,0.829,1.476,1.067,0.455,0.804,0.760,�k�k��,2.9,��
